sat.trackr.live / text

‹ back to catalog

UNKNOWN

NORAD 87271

UNKNOWN UNKNOWN UNKNOWN

§ Identity

Operator
Country
Launch date
Launch site
Launch vehicle
Mass (kg)
RCS (m²)

External: N2YO · Heavens-Above

§ Orbital elements

Epoch: 2026-05-24T01:15:31.615200Z

Period
101.12 min
Inclination
65.7518°
Eccentricity
0.0423823
Mean motion
14.24016545 rev/d
Perigee alt
507.1 km
Apogee alt
1,116.5 km
Semi-major
7,189.9 km
B*
1.0494e-3
RAAN
159.0750°
Arg perigee
348.3538°
Mean anomaly
10.7971°
Rev number
63,546

§ Raw data

UNKNOWN1 87271U          26144.05244925  .00006093  00000+0  10494-2 0  99902 87271  65.7518 159.0750 0423823 348.3538  10.7971 14.24016545635463

JSON: /api/v1/satellites/87271 · /tle

For live sub-satellite position, see the globe view (requires WebGL).

§ Visibility from observer

Set your observer location to see the next 7 days of passes ≥ 10°. The values pass through the URL so the page stays shareable.

No JS? Fill the form by hand. The geolocation button needs JavaScript.